Wharton, TX

1:23 PM CST on November 14, 2019 (GMT -0600)
Wharton Regional

Weather History for KARM - September, 2019

Change the Weather History Date:

Thursday, September 19, 2019

  Actual Average (WUND) Record (WUND)
Temperature  
Mean Temperature 78 °F -  
Max Temperature 83 °F - - (-1)
Min Temperature 73 °F - - (-1)
Cooling Degree Days 13    
Growing Degree Days 28 (Base 50)    
Moisture  
Dew Point 75 °F    
Average Humidity 90    
Maximum Humidity 94    
Minimum Humidity 77    
Precipitation  
Precipitation 1.03 in - - ()
Sea Level Pressure  
Sea Level Pressure 29.88 in    
Wind  
Wind Speed 7 mph ()    
Max Wind Speed 17 mph    
Max Gust Speed 38 mph    
Visibility 7.6 miles    
Events Rain , Thunderstorm    
Averages and records for this station are not official NWS values.
T = Trace of Precipitation, MM = Missing Value Source: Averaged Metar Reports

Daily Weather History Graph

Daily Weather History Graph

Search for Another Location

Airport or City:

Astronomy

Sep. 19, 2019 Rise Set
Actual Time 7:11 AM CDT 7:25 PM CDT
Civil Twilight 6:47 AM CDT 7:48 PM CDT
Nautical Twilight 6:19 AM CDT 8:16 PM CDT
Astronomical Twilight 5:51 AM CDT 8:44 PM CDT
Moon 10:58 PM CDT (9/19) 11:54 AM CDT (9/19)
Length of Visible Light 13h 01m
Length of Day
12h 13m
Waning Gibbous, 74% of the Moon is Illuminated
Sep 19
Waning Gibbous
Sep 21
Last Quarter
Sep 28
New
Oct 5
First Quarter
Oct 13
Full

Hourly Weather History & Observations

Time (CDT) Temp. Heat Index Dew Point Humidity Pressure Visibility Wind Dir Wind Speed Gust Speed Precip Events Conditions
12:15 AM 79.3 °F - 77.4 °F 94% 29.87 in 7.0 mi South 6.9 mph - N/A   Overcast
12:35 AM 79.7 °F - 77.4 °F 93% 29.87 in 7.0 mi South 9.2 mph - N/A   Overcast
12:55 AM 79.7 °F - 77.4 °F 93% 29.86 in 7.0 mi South 8.1 mph - N/A   Mostly Cloudy
1:15 AM 79.7 °F - 77.4 °F 93% 29.86 in 5.0 mi SSW 9.2 mph - N/A   Scattered Clouds
1:35 AM 79.7 °F - 77.4 °F 93% 29.87 in 5.0 mi SSW 8.1 mph - N/A   Scattered Clouds
1:55 AM 79.7 °F - 77.4 °F 93% 29.87 in 5.0 mi SSW 8.1 mph - N/A   Clear
2:15 AM 79.7 °F - 77.4 °F 93% 29.87 in 5.0 mi SSW 8.1 mph - N/A   Clear
2:35 AM 79.7 °F - 77.4 °F 93% 29.87 in 5.0 mi South 5.8 mph - N/A   Mostly Cloudy
2:55 AM 79.7 °F - 77.2 °F 92% 29.86 in 5.0 mi SSW 8.1 mph - N/A   Mostly Cloudy
3:15 AM 79.5 °F - 77.0 °F 92% 29.86 in 5.0 mi SSW 6.9 mph - N/A   Scattered Clouds
3:35 AM 79.2 °F - 77.0 °F 93% 29.86 in 5.0 mi SSW 8.1 mph - N/A   Scattered Clouds
3:55 AM 79.0 °F - 76.6 °F 92% 29.85 in 5.0 mi SSW 6.9 mph - N/A   Clear
4:15 AM 78.8 °F - 76.5 °F 92% 29.85 in 5.0 mi SSW 5.8 mph - N/A   Clear
4:35 AM 79.0 °F - 76.6 °F 92% 29.85 in 7.0 mi SSW 9.2 mph - N/A   Clear
4:55 AM 78.8 °F - 76.5 °F 92% 29.84 in 7.0 mi SSW 6.9 mph - N/A   Clear
5:15 AM 78.8 °F - 76.6 °F 93% 29.85 in 7.0 mi SSW 5.8 mph - N/A   Scattered Clouds
5:35 AM 78.8 °F - 76.5 °F 92% 29.85 in 7.0 mi SSW 3.5 mph - N/A   Scattered Clouds
5:55 AM 78.8 °F - 76.3 °F 92% 29.85 in 5.0 mi SSW 4.6 mph - N/A   Mostly Cloudy
6:15 AM 78.8 °F - 76.5 °F 92% 29.85 in 5.0 mi SSW 5.8 mph - N/A   Mostly Cloudy
6:35 AM 78.4 °F - 76.5 °F 94% 29.86 in 5.0 mi SSW 3.5 mph - N/A   Mostly Cloudy
6:55 AM 78.8 °F - 76.6 °F 93% 29.87 in 5.0 mi SSW 3.5 mph - N/A   Overcast
7:10 AM 78.8 °F - 76.6 °F 93% 29.87 in 5.0 mi SSW 4.6 mph - N/A   Overcast
7:35 AM 78.8 °F - 77.0 °F 94% 29.87 in 4.0 mi South 5.8 mph - N/A   Overcast
7:55 AM 79.2 °F - 77.2 °F 94% 29.87 in 4.0 mi SSW 4.6 mph - N/A   Mostly Cloudy
8:15 AM 79.5 °F - 77.4 °F 93% 29.87 in 4.0 mi SSW 5.8 mph - N/A   Mostly Cloudy
8:35 AM 79.7 °F - 77.9 °F 94% 29.88 in 2.0 mi SW 4.6 mph - 0.05 in Rain Heavy Rain
8:55 AM 79.9 °F - 77.9 °F 94% 29.88 in 3.0 mi SSW 6.9 mph - 0.09 in Rain Rain
9:15 AM 81.3 °F 90.2 °F 79.2 °F 93% 29.88 in 5.0 mi SW 10.4 mph - N/A Rain Light Rain
9:35 AM 78.1 °F - 74.3 °F 88% 29.89 in 1.2 mi WSW 13.8 mph 29.9 mph 0.24 in Rain Heavy Rain
9:55 AM 77.9 °F - 72.9 °F 84% 29.89 in 10.0 mi SW 6.9 mph - 0.25 in   Mostly Cloudy
10:15 AM 80.1 °F 85.2 °F 75.4 °F 86% 29.89 in 10.0 mi WSW 4.6 mph - N/A   Mostly Cloudy
10:35 AM 82.6 °F 91.7 °F 77.7 °F 85% 29.90 in 10.0 mi SW 5.8 mph - 0.02 in   Overcast
10:55 AM 82.4 °F 91.2 °F 77.4 °F 85% 29.90 in 10.0 mi Calm Calm - 0.02 in   Mostly Cloudy
11:15 AM 81.1 °F 87.0 °F 74.7 °F 81% 29.90 in 10.0 mi SSW 15.0 mph 21.9 mph N/A   Mostly Cloudy
11:35 AM 79.2 °F - 72.1 °F 79% 29.89 in 10.0 mi South 5.8 mph - N/A Thunderstorm Scattered Clouds
11:55 AM 81.5 °F 87.4 °F 74.5 °F 79% 29.89 in 10.0 mi SW 6.9 mph - N/A Thunderstorm Mostly Cloudy
12:15 PM 83.8 °F 93.5 °F 77.2 °F 80% 29.87 in 10.0 mi SW 9.2 mph - N/A Thunderstorm Mostly Cloudy
12:35 PM 81.3 °F 86.5 °F 73.6 °F 77% 29.88 in 10.0 mi South 17.3 mph 24.2 mph N/A   Mostly Cloudy
12:55 PM 80.1 °F 84.4 °F 73.4 °F 80% 29.89 in 10.0 mi South 6.9 mph - N/A Thunderstorm Scattered Clouds
1:15 PM 80.8 °F 86.1 °F 74.3 °F 81% 29.88 in 10.0 mi SSE 5.8 mph - N/A Thunderstorm Clear
1:35 PM 80.6 °F 85.9 °F 74.5 °F 82% 29.87 in 10.0 mi South 5.8 mph - N/A Thunderstorm Thunderstorm
1:55 PM 81.0 °F 86.9 °F 75.2 °F 83% 29.88 in 10.0 mi SSW 8.1 mph - N/A Thunderstorm Scattered Clouds
2:15 PM 74.3 °F - 70.0 °F 86% 29.88 in 0.5 mi South 13.8 mph 38.0 mph 0.54 in Rain , Thunderstorm Thunderstorms and Rain
2:35 PM 77.0 °F - 70.3 °F 80% 29.87 in 10.0 mi South 10.4 mph - 0.54 in Thunderstorm Scattered Clouds
2:55 PM 78.8 °F - 73.9 °F 85% 29.88 in 10.0 mi South 5.8 mph - 0.54 in Thunderstorm Thunderstorm
3:15 PM 77.7 °F - 72.0 °F 82% 29.88 in 10.0 mi SSW 5.8 mph - N/A Thunderstorm Mostly Cloudy
3:35 PM 77.4 °F - 70.0 °F 78% 29.89 in 4.0 mi NE 3.5 mph - 0.01 in Rain , Thunderstorm Thunderstorms and Rain
3:55 PM 75.2 °F - 71.2 °F 87% 29.88 in 7.0 mi NE 4.6 mph - 0.04 in Rain , Thunderstorm Light Thunderstorms and Rain
4:15 PM 75.2 °F - 71.8 °F 89% 29.89 in 5.0 mi NE 5.8 mph - 0.03 in Rain , Thunderstorm Thunderstorms and Rain
4:35 PM 74.8 °F - 72.1 °F 91% 29.89 in 7.0 mi ENE 9.2 mph - 0.08 in Rain , Thunderstorm Thunderstorms and Rain
4:55 PM 74.7 °F - 72.1 °F 92% 29.88 in 10.0 mi East 11.5 mph 16.1 mph 0.09 in Rain , Thunderstorm Light Thunderstorms and Rain
5:15 PM 73.8 °F - 71.4 °F 92% 29.88 in 10.0 mi ESE 9.2 mph 16.1 mph N/A Rain , Thunderstorm Light Thunderstorms and Rain
5:35 PM 73.6 °F - 71.2 °F 92% 29.87 in 10.0 mi East 5.8 mph 16.1 mph N/A Rain , Thunderstorm Light Thunderstorms and Rain
5:55 PM 74.3 °F - 72.0 °F 92% 29.86 in 10.0 mi East 8.1 mph - N/A Thunderstorm Mostly Cloudy
6:15 PM 74.3 °F - 72.1 °F 93% 29.88 in 10.0 mi ESE 8.1 mph - N/A   Scattered Clouds
6:35 PM 74.3 °F - 72.5 °F 94% 29.88 in 10.0 mi East 8.1 mph - N/A   Scattered Clouds
6:55 PM 74.3 °F - 72.5 °F 94% 29.87 in 10.0 mi ESE 9.2 mph - N/A   Scattered Clouds
7:15 PM 74.1 °F - 72.0 °F 93% 29.87 in 10.0 mi ESE 5.8 mph - N/A   Mostly Cloudy
7:35 PM 73.9 °F - 72.0 °F 93% 29.87 in 10.0 mi ESE 6.9 mph - N/A   Scattered Clouds
7:55 PM 73.8 °F - 71.8 °F 93% 29.88 in 10.0 mi East 5.8 mph - N/A   Clear
8:15 PM 73.8 °F - 71.6 °F 93% 29.88 in 10.0 mi East 4.6 mph - N/A   Clear
8:35 PM 73.6 °F - 71.6 °F 93% 29.89 in 10.0 mi ESE 5.8 mph - N/A   Clear
8:55 PM 73.9 °F - 71.6 °F 92% 29.89 in 10.0 mi ESE 5.8 mph - N/A   Clear
9:15 PM 74.5 °F - 72.1 °F 92% 29.88 in 10.0 mi ESE 5.8 mph - N/A   Clear
9:55 PM 74.8 °F - 72.5 °F 92% 29.90 in 10.0 mi East 5.8 mph - N/A   Scattered Clouds
10:15 PM 74.8 °F - 72.7 °F 93% 29.92 in 10.0 mi East 4.6 mph - N/A   Mostly Cloudy
10:35 PM 75.4 °F - 73.4 °F 94% 29.92 in 10.0 mi ESE 5.8 mph - N/A   Scattered Clouds
10:55 PM 75.6 °F - 73.6 °F 94% 29.91 in 10.0 mi SE 5.8 mph - N/A   Scattered Clouds
11:15 PM 76.1 °F - 73.9 °F 93% 29.92 in 10.0 mi ESE 4.6 mph - N/A   Scattered Clouds
11:35 PM 76.3 °F - 74.5 °F 94% 29.92 in 10.0 mi SE 5.8 mph - N/A   Clear
11:55 PM 76.6 °F - 74.8 °F 94% 29.93 in 10.0 mi SE 5.8 mph - N/A   Clear